FW2912 Weather Reports


time (UTC)temp
C
wind
direction
speed
KPH
gust
KPH
rain 1hr
cm
rain 24hr
cm
rain mn
cm
humidity
%
barometer
mb
20260502231517 12 113 3.2 6.4 0.00 0.00 0.00 1 1013.0
20260502230517 12 113 6.4 11.3 0.00 0.00 0.00 1 1013.1
20260502225517 12 90 8.0 12.9 0.00 0.00 0.00 1 1013.1
20260502224517 12 68 6.4 8.0 0.00 0.00 0.00 1 1012.8
20260502223517 12 68 6.4 8.0 0.00 0.00 0.00 1 1012.9
20260502222517 12 90 6.4 8.0 0.00 0.00 0.00 1 1013.0
20260502221517 12 68 6.4 8.0 0.00 0.00 0.00 1 1012.9
20260502220527 12 45 8.0 9.7 0.00 0.00 0.00 1 1012.8
20260502220017 12 45 6.4 9.7 0.00 0.00 0.00 1 1012.9
20260502215036 12 45 4.8 6.4 0.00 0.00 0.00 1 1013.0
20260502214016 12 90 4.8 6.4 0.00 0.00 0.00 1 1013.1
20260502213018 12 68 1.6 6.4 0.00 0.00 0.00 1 1013.2
20260502212016 12 68 3.2 4.8 0.00 0.00 0.00 1 1013.4
20260502211016 12 90 3.2 6.4 0.00 0.00 0.00 1 1013.5
20260502210019 12 45 3.2 4.8 0.00 0.00 0.00 1 1013.4
20260502205016 12 0.0 0.0 0.00 0.00 0.00 1 1013.6
20260502204016 12 90 1.6 3.2 0.00 0.00 0.00 1 1013.7
20260502203016 13 0 1.6 3.2 0.00 0.00 0.00 1 1013.8
20260502202018 13 0 4.8 8.0 0.00 0.00 0.00 1 1013.8
20260502201016 13 338 4.8 8.0 0.00 0.00 0.00 1 1013.9
20260502200037 13 338 4.8 8.0 0.00 0.00 0.00 1 1014.0
20260502195018 13 338 4.8 6.4 0.00 0.00 0.00 1 1013.9
20260502194017 13 0 4.8 6.4 0.00 0.00 0.00 1 1014.0
20260502193018 14 338 4.8 9.7 0.00 0.00 0.00 1 1013.9
20260502192016 14 0 4.8 6.4 0.00 0.00 0.00 1 1013.9
20260502191016 15 338 4.8 8.0 0.00 0.00 0.00 1 1013.9
20260502190016 15 338 4.8 9.7 0.00 0.00 0.00 1 1013.9
20260502185016 15 315 4.8 9.7 0.00 0.00 0.00 1 1013.9
20260502184016 16 315 8.0 12.9 0.00 0.00 0.00 6 1013.9
20260502183018 16 315 9.7 16.1 0.00 0.00 0.00 26 1014.0
20260502182028 17 315 8.0 14.5 0.00 0.00 0.00 48 1013.9
20260502181016 17 315 9.7 12.9 0.00 0.00 0.00 56 1014.0
20260502164016 18 293 8.0 12.9 0.00 0.00 0.00 58 1014.6
20260502163016 18 293 8.0 12.9 0.00 0.00 0.00 61 1014.7
20260502162036 18 315 8.0 14.5 0.00 0.00 0.00 61 1014.7
20260502161017 19 315 11.3 19.3 0.00 0.00 0.00 60 1014.8
20260502152016 20 293 9.7 17.7 0.00 0.00 0.00 53 1015.0
20260502151016 20 293 9.7 17.7 0.00 0.00 0.00 53 1015.2
20260502123018 21 248 12.9 20.9 0.00 0.00 0.00 59 1016.0
20260502122016 20 248 12.9 22.5 0.00 0.00 0.00 58 1016.1
20260502121016 21 225 11.3 20.9 0.00 0.00 0.00 59 1016.2
20260502115016 20 248 8.0 17.7 0.00 0.00 0.00 58 1016.3
20260502114016 20 248 9.7 16.1 0.00 0.00 0.00 59 1016.4
20260502113017 20 248 9.7 19.3 0.00 0.00 0.00 60 1016.6
20260502112016 20 248 6.4 14.5 0.00 0.00 0.00 60 1016.6
20260502111037 19 248 6.4 12.9 0.00 0.00 0.00 58 1016.7
20260502110016 18 248 4.8 8.0 0.00 0.00 0.00 59 1016.6
20260502105016 17 270 4.8 9.7 0.00 0.00 0.00 58 1016.6
20260502104016 17 270 4.8 8.0 0.00 0.00 0.00 57 1016.5
20260502103016 17 248 4.8 9.7 0.00 0.00 0.00 58 1016.4
20260502102057 16 225 4.8 9.7 0.00 0.00 0.00 58 1016.3
20260502101017 16 225 3.2 9.7 0.00 0.00 0.00 58 1016.6
20260502091016 16 225 9.7 20.9 0.00 0.00 0.00 61 1017.1
20260502071039 15 225 9.7 14.5 0.00 0.00 0.00 62 1016.9
20260502070017 15 225 9.7 14.5 0.00 0.00 0.00 62 1016.9
20260502065017 15 225 8.0 12.9 0.00 0.00 0.00 62 1016.8
20260502064019 14 203 8.0 12.9 0.00 0.00 0.00 61 1016.9
20260502063017 14 180 9.7 12.9 0.00 0.00 0.00 60 1016.8
20260502062017 13 158 6.4 9.7 0.00 0.00 0.00 61 1016.7
20260502061027 13 158 6.4 11.3 0.00 0.00 0.00 60 1016.8
20260502060017 13 180 4.8 8.0 0.00 0.00 0.00 58 1016.8
20260502055017 12 180 4.8 8.0 0.00 0.00 0.00 54 1016.9
20260502054029 12 158 4.8 8.0 0.00 0.00 0.00 55 1016.9
20260502053017 11 225 4.8 8.0 0.00 0.00 0.00 56 1017.1
20260502052017 11 180 4.8 6.4 0.00 0.00 0.00 56 1016.9
20260502051019 11 180 3.2 6.4 0.00 0.00 0.00 53 1017.0
20260502050037 10 180 3.2 4.8 0.00 0.00 0.00 56 1016.9
20260502045017 10 180 3.2 4.8 0.00 0.00 0.00 57 1017.0
20260502044017 10 203 4.8 6.4 0.00 0.00 0.00 56 1016.9
20260502043017 10 203 4.8 8.0 0.00 0.00 0.00 55 1016.9
20260502042017 10 180 6.4 8.0 0.00 0.00 0.00 57 1016.9
20260502041019 10 180 4.8 6.4 0.00 0.00 0.00 57 1017.0
20260502040017 10 203 4.8 8.0 0.00 0.00 0.00 56 1017.1
20260502035019 10 203 6.4 8.0 0.00 0.00 0.00 57 1017.1
20260502034017 10 203 4.8 6.4 0.00 0.00 0.00 54 1017.3
20260502033017 10 180 4.8 6.4 0.00 0.00 0.00 54 1017.3
20260502032017 10 180 3.2 4.8 0.00 0.00 0.00 52 1017.3
20260502031057 10 180 4.8 4.8 0.00 0.00 0.00 51 1017.4
20260502030017 10 180 3.2 4.8 0.00 0.00 0.00 47 1017.4
20260502025017 10 180 3.2 4.8 0.00 0.00 0.00 46 1017.5
20260502024019 10 0.0 0.0 0.00 0.00 0.00 43 1017.6
20260502023017 10 135 1.6 3.2 0.00 0.00 0.00 46 1017.6
20260502022019 11 135 3.2 4.8 0.00 0.00 0.00 48 1017.7
20260502021020 11 0.0 0.0 0.00 0.00 0.00 50 1017.7
20260502020017 11 135 1.6 3.2 0.00 0.00 0.00 53 1017.9
20260502015017 11 135 3.2 3.2 0.00 0.00 0.00 57 1017.9
20260502014019 11 135 3.2 4.8 0.00 0.00 0.00 58 1017.9
20260502013017 11 135 1.6 3.2 0.00 0.00 0.00 54 1018.0
20260502012018 11 135 1.6 3.2 0.00 0.00 0.00 53 1018.2
20260502011037 11 0.0 3.2 0.00 0.00 0.00 50 1018.3
20260502010017 11 135 1.6 3.2 0.00 0.00 0.00 54 1018.4
20260502005017 12 0.0 0.0 0.00 0.00 0.00 55 1018.5
20260502004037 12 0.0 0.0 0.00 0.00 0.00 49 1018.7
20260502003017 12 0.0 0.0 0.00 0.00 0.00 49 1018.8
20260502002017 12 0.0 0.0 0.00 0.00 0.00 51 1018.9
20260502001017 12 0.0 0.0 0.00 0.00 0.00 54 1018.9
20260502000017 12 0.0 0.0 0.00 0.00 0.00 55 1019.0
20260501235040 12 0.0 0.0 0.00 0.00 0.00 53 1019.1
20260501234022 12 0.0 0.0 0.00 0.00 0.00 51 1019.1
20260501233017 12 0.0 0.0 0.00 0.00 0.00 52 1019.3